Back to catalog

SL-16 DEB

AliveLEO
NORAD 18411·DEBRIS·🇷🇺 Russia

Launched May 13, 1987 from Baikonur Cosmodrome

Loading…

Next Passes (next 24 hours)

TLE

FreshSource: Space-Track

Epoch: Sep 14, 2026, 10:53 UTC

1 18411U 87041D   26257.45364676  .00000033  00000-0  67125-4 0  9999
2 18411  71.0284 257.4771 0186106  82.9841  67.3324 13.76497441974524

Track SL-16 DEB in real time with AllMySat

Download on the App Store